,,PA_Meas_PMT16A,,PR_Meas_QMR101_102,,RH_Meas_QMH101,,SR_Meas_QMS101,,TA_Meas_QMH101,,GenWind,,GenWind,
time,status,PA,status,PR,status,RH,status,SR,status,TA,status,DirAvg,status,SpdAvg,
2009-11-15, 00:00:04,VALID,916.923,VALID,0,VALID,96.9546,VALID,0.107441,VALID,20.9674,VALID,182,VALID,0.689453,
2009-11-15, 00:01:04,VALID,916.946,VALID,0,VALID,96.9241,VALID,0.107441,VALID,20.9463,VALID,182,VALID,0.43125,
2009-11-15, 00:02:04,VALID,916.924,VALID,0,VALID,96.8631,VALID,0,VALID,20.9674,VALID,182,VALID,0.394531,
2009-11-15, 00:03:04,VALID,916.888,VALID,0,VALID,96.8555,VALID,0.107441,VALID,20.9658,VALID,182,VALID,0.355859,
2009-11-15, 00:04:04,VALID,916.909,VALID,0,VALID,96.8174,VALID,0.107441,VALID,20.9658,VALID,182,VALID,0.569531,
2009-11-15, 00:05:04,VALID,916.9,VALID,0,VALID,96.7869,VALID,0.107441,VALID,20.9853,VALID,182,VALID,0.610937,
2009-11-15, 00:06:04,VALID,916.924,VALID,0,VALID,96.7107,VALID,0.107441,VALID,20.9869,VALID,182,VALID,0.386719,
2009-11-15, 00:07:04,VALID,916.88,VALID,0,VALID,96.6878,VALID,0,VALID,21.0064,VALID,182,VALID,0.308984,
2009-11-15, 00:08:04,VALID,916.858,VALID,0,VALID,96.642,VALID,0.107441,VALID,20.9658,VALID,182,VALID,0.568359,
2009-11-15, 00:09:04,VALID,916.868,VALID,0,VALID,96.5734,VALID,0,VALID,20.9479,VALID,182,VALID,0.796484,
2009-11-15, 00:10:04,VALID,916.867,VALID,0,VALID,96.5201,VALID,0,VALID,20.9674,VALID,182,VALID,0.770312,
2009-11-15, 00:11:04,VALID,916.844,VALID,0,VALID,96.4819,VALID,0,VALID,20.9479,VALID,182,VALID,0.714063,
2009-11-15, 00:12:04,VALID,916.818,VALID,0,VALID,96.4362,VALID,0,VALID,20.9479,VALID,182,VALID,1.14492,
2009-11-15, 00:13:04,VALID,916.824,VALID,0,VALID,96.4133,VALID,0,VALID,20.9674,VALID,181,VALID,0.98125,
2009-11-15, 00:14:04,VALID,916.766,VALID,0,VALID,96.3524,VALID,0,VALID,20.9674,VALID,170,VALID,0.835547,
2009-11-15, 00:15:04,VALID,916.763,VALID,0,VALID,96.2761,VALID,0,VALID,20.9869,VALID,170,VALID,0.861328,
2009-11-15, 00:16:04,VALID,916.716,VALID,0,VALID,96.1923,VALID,0,VALID,21.047,VALID,170,VALID,0.707031,
2009-11-15, 00:17:04,VALID,916.708,VALID,0,VALID,96.0474,VALID,0,VALID,21.0259,VALID,170,VALID,0.640234,
2009-11-15, 00:18:04,VALID,916.689,VALID,0,VALID,95.9331,VALID,0,VALID,21.0454,VALID,170,VALID,0.621484,
2009-11-15, 00:19:04,VALID,916.643,VALID,0,VALID,95.7501,VALID,0,VALID,21.0649,VALID,169,VALID,0.74375,
2009-11-15, 00:20:04,VALID,916.653,VALID,0,VALID,95.6281,VALID,0,VALID,21.0649,VALID,169,VALID,0.671094,
2009-11-15, 00:21:04,VALID,916.61,VALID,0,VALID,95.4757,VALID,0,VALID,21.0454,VALID,169,VALID,0.863281,
2009-11-15, 00:22:04,VALID,916.629,VALID,0,VALID,95.3918,VALID,0,VALID,21.0454,VALID,168,VALID,0.809375,
2009-11-15, 00:23:04,VALID,916.602,VALID,0,VALID,95.3384,VALID,0,VALID,21.0454,VALID,168,VALID,0.535937,
2009-11-15, 00:24:04,VALID,916.619,VALID,0,VALID,95.3689,VALID,0,VALID,21.0649,VALID,168,VALID,0.316797,
2009-11-15, 00:25:04,VALID,916.613,VALID,0,VALID,95.3613,VALID,0,VALID,21.0649,VALID,168,VALID,0.745313,
2009-11-15, 00:26:04,VALID,916.583,VALID,0,VALID,95.3232,VALID,0,VALID,21.0649,VALID,168,VALID,0.294922,
2009-11-15, 00:27:04,VALID,916.58,VALID,0,VALID,95.2622,VALID,0,VALID,21.0649,VALID,168,VALID,0.296484,
2009-11-15, 00:28:04,VALID,916.579,VALID,0,VALID,95.2775,VALID,0,VALID,21.0454,VALID,168,VALID,0.523047,
2009-11-15, 00:29:04,VALID,916.581,VALID,0,VALID,95.3994,VALID,0,VALID,21.0064,VALID,168,VALID,0.684766,
2009-11-15, 00:30:04,VALID,916.59,VALID,0,VALID,95.651,VALID,0,VALID,20.9674,VALID,168,VALID,0.655859,
2009-11-15, 00:31:04,VALID,916.543,VALID,0,VALID,95.7806,VALID,0,VALID,20.9479,VALID,168,VALID,0.560547,
2009-11-15, 00:32:04,VALID,916.566,VALID,0,VALID,95.9254,VALID,0,VALID,20.9284,VALID,168,VALID,0.327734,
2009-11-15, 00:33:04,VALID,916.54,VALID,0,VALID,96.0322,VALID,0,VALID,20.9089,VALID,168,VALID,0.528906,
2009-11-15, 00:34:04,VALID,916.541,VALID,0,VALID,96.1389,VALID,0,VALID,20.8894,VALID,168,VALID,0.458203,
2009-11-15, 00:35:04,VALID,916.539,VALID,0,VALID,96.238,VALID,0,VALID,20.8894,VALID,168,VALID,0.449609,
2009-11-15, 00:36:04,VALID,916.499,VALID,0,VALID,96.2837,VALID,0,VALID,20.8699,VALID,168,VALID,0.428906,
2009-11-15, 00:37:04,VALID,916.509,VALID,0,VALID,96.2228,VALID,0,VALID,20.8504,VALID,168,VALID,0.510938,
2009-11-15, 00:38:04,VALID,916.501,VALID,0,VALID,96.1999,VALID,0,VALID,20.8519,VALID,168,VALID,0.415234,
2009-11-15, 00:39:04,VALID,916.497,VALID,0,VALID,96.1999,VALID,0,VALID,20.8309,VALID,168,VALID,0.527734,
2009-11-15, 00:40:04,VALID,916.472,VALID,0,VALID,96.238,VALID,0.107441,VALID,20.8309,VALID,168,VALID,0,
2009-11-15, 00:41:04,VALID,916.471,VALID,0,VALID,96.2837,VALID,0,VALID,20.8309,VALID,168,VALID,0,
2009-11-15, 00:42:04,VALID,916.433,VALID,0,VALID,96.2914,VALID,0.107441,VALID,20.8098,VALID,168,VALID,0,
2009-11-15, 00:43:04,VALID,916.437,VALID,0,VALID,96.2914,VALID,0.107441,VALID,20.8098,VALID,168,VALID,0,
2009-11-15, 00:44:04,VALID,916.421,VALID,0,VALID,96.3142,VALID,0.107441,VALID,20.8098,VALID,168,VALID,0,
2009-11-15, 00:45:04,VALID,916.41,VALID,0,VALID,96.3295,VALID,0.107441,VALID,20.8098,VALID,168,VALID,0.219531,
2009-11-15, 00:46:04,VALID,916.408,VALID,0,VALID,96.3219,VALID,0.107441,VALID,20.8309,VALID,168,VALID,0.148047,
2009-11-15, 00:47:04,VALID,916.402,VALID,0,VALID,96.3447,VALID,0.107441,VALID,20.8098,VALID,168,VALID,0,
2009-11-15, 00:48:04,VALID,916.382,VALID,0,VALID,96.3219,VALID,0.107441,VALID,20.8504,VALID,168,VALID,0.51875,
2009-11-15, 00:49:04,VALID,916.38,VALID,0,VALID,96.2533,VALID,0,VALID,20.7903,VALID,168,VALID,0.873047,
2009-11-15, 00:50:04,VALID,916.378,VALID,0,VALID,96.2533,VALID,0.107441,VALID,20.7918,VALID,168,VALID,0.690625,
2009-11-15, 00:51:04,VALID,916.345,VALID,0,VALID,96.4057,VALID,0,VALID,20.7918,VALID,168,VALID,0.869141,
2009-11-15, 00:52:04,VALID,916.324,VALID,0,VALID,96.4972,VALID,0.107441,VALID,20.7708,VALID,167,VALID,0.707031,
2009-11-15, 00:53:04,VALID,916.33,VALID,0,VALID,96.5582,VALID,0,VALID,20.7513,VALID,167,VALID,0.366406,
2009-11-15, 00:54:04,VALID,916.284,VALID,0,VALID,96.6268,VALID,0,VALID,20.7723,VALID,167,VALID,0.268359,
2009-11-15, 00:55:04,VALID,916.283,VALID,0,VALID,96.6878,VALID,0.107441,VALID,20.7318,VALID,167,VALID,0.531641,
2009-11-15, 00:56:04,VALID,916.271,VALID,0,VALID,96.6573,VALID,0.107441,VALID,20.7123,VALID,167,VALID,0.438672,
2009-11-15, 00:57:04,VALID,916.25,VALID,0,VALID,96.7411,VALID,0.107441,VALID,20.6928,VALID,167,VALID,0.251563,
2009-11-15, 00:58:04,VALID,916.239,VALID,0,VALID,96.7183,VALID,0,VALID,20.6733,VALID,167,VALID,0.275781,
2009-11-15, 00:59:04,VALID,916.225,VALID,0,VALID,96.7716,VALID,0.107441,VALID,20.6733,VALID,167,VALID,0.657812,
2009-11-15, 01:00:04,VALID,916.244,VALID,0,VALID,96.7335,VALID,0.107441,VALID,20.6342,VALID,167,VALID,0.539453,
2009-11-15, 01:01:04,VALID,916.188,VALID,0,VALID,96.7793,VALID,0.107441,VALID,20.6358,VALID,167,VALID,0.339063,
2009-11-15, 01:02:04,VALID,916.208,VALID,0,VALID,96.7869,VALID,0,VALID,20.6147,VALID,167,VALID,0.186719,
2009-11-15, 01:03:04,VALID,916.193,VALID,0,VALID,96.8403,VALID,0,VALID,20.5968,VALID,167,VALID,0.259375,
2009-11-15, 01:04:04,VALID,916.192,VALID,0,VALID,96.8631,VALID,0,VALID,20.5968,VALID,167,VALID,0.297656,
2009-11-15, 01:05:04,VALID,916.167,VALID,0,VALID,96.8326,VALID,0,VALID,20.5562,VALID,167,VALID,0.573438,
2009-11-15, 01:06:04,VALID,916.162,VALID,0,VALID,96.8174,VALID,0.107441,VALID,20.5383,VALID,167,VALID,0.939844,
2009-11-15, 01:07:04,VALID,916.13,VALID,0,VALID,96.8707,VALID,0,VALID,20.4977,VALID,167,VALID,0.997656,
2009-11-15, 01:08:04,VALID,916.149,VALID,0,VALID,96.9394,VALID,0.107441,VALID,20.4782,VALID,167,VALID,1.03789,
2009-11-15, 01:09:04,VALID,916.15,VALID,0,VALID,96.9317,VALID,0,VALID,20.4603,VALID,167,VALID,0.970703,
2009-11-15, 01:10:04,VALID,916.113,VALID,0,VALID,97.0003,VALID,0,VALID,20.4603,VALID,38,VALID,0.996875,
2009-11-15, 01:11:04,VALID,916.102,VALID,0,VALID,97.0461,VALID,0,VALID,20.4408,VALID,38,VALID,0.477734,
2009-11-15, 01:12:04,VALID,916.107,VALID,0,VALID,97.0461,VALID,0,VALID,20.4408,VALID,38,VALID,0.598828,
2009-11-15, 01:13:04,VALID,916.103,VALID,0,VALID,97.0613,VALID,0,VALID,20.4213,VALID,38,VALID,0.565234,
2009-11-15, 01:14:04,VALID,916.143,VALID,0,VALID,97.0994,VALID,0,VALID,20.4018,VALID,38,VALID,0.687109,
2009-11-15, 01:15:04,VALID,916.114,VALID,0,VALID,97.1223,VALID,0,VALID,20.4018,VALID,38,VALID,0.686328,
2009-11-15, 01:16:04,VALID,916.109,VALID,0,VALID,97.1528,VALID,0,VALID,20.3823,VALID,38,VALID,0.633594,
2009-11-15, 01:17:04,VALID,916.101,VALID,0,VALID,97.1833,VALID,0,VALID,20.3838,VALID,38,VALID,0.449219,
2009-11-15, 01:18:04,VALID,916.08,VALID,0,VALID,97.2138,VALID,0,VALID,20.3838,VALID,38,VALID,0.0882813,
2009-11-15, 01:19:05,VALID,916.074,VALID,0,VALID,97.1909,VALID,0,VALID,20.3643,VALID,38,VALID,0.253125,
2009-11-15, 01:20:05,VALID,916.079,VALID,0,VALID,97.2138,VALID,0,VALID,20.3448,VALID,38,VALID,0.290625,
2009-11-15, 01:21:05,VALID,916.078,VALID,0,VALID,97.2214,VALID,0,VALID,20.3253,VALID,38,VALID,0.325781,
2009-11-15, 01:22:05,VALID,916.056,VALID,0,VALID,97.229,VALID,0,VALID,20.3238,VALID,38,VALID,0.110937,
2009-11-15, 01:23:05,VALID,916.031,VALID,0,VALID,97.2672,VALID,0,VALID,20.3238,VALID,38,VALID,0.360156,
2009-11-15, 01:24:05,VALID,915.997,VALID,0,VALID,97.3129,VALID,0,VALID,20.3612,VALID,38,VALID,0.275391,
2009-11-15, 01:25:05,VALID,915.984,VALID,0,VALID,97.3358,VALID,0,VALID,20.4018,VALID,38,VALID,0.405078,
2009-11-15, 01:26:05,VALID,915.999,VALID,0,VALID,97.3129,VALID,0,VALID,20.4002,VALID,38,VALID,0.4875,
2009-11-15, 01:27:05,VALID,915.965,VALID,0,VALID,97.3129,VALID,0,VALID,20.3823,VALID,38,VALID,0.612891,
2009-11-15, 01:28:05,VALID,915.974,VALID,0,VALID,97.3129,VALID,0.107441,VALID,20.4018,VALID,38,VALID,0.817969,
2009-11-15, 01:29:05,VALID,915.976,VALID,0,VALID,97.3053,VALID,0.107441,VALID,20.4018,VALID,38,VALID,0.639063,
2009-11-15, 01:30:05,VALID,915.97,VALID,0,VALID,97.3053,VALID,0.107441,VALID,20.4018,VALID,38,VALID,0.583594,
2009-11-15, 01:31:05,VALID,915.962,VALID,0,VALID,97.2824,VALID,0,VALID,20.3612,VALID,38,VALID,0.359766,
2009-11-15, 01:32:05,VALID,915.955,VALID,0,VALID,97.2824,VALID,0.107441,VALID,20.3612,VALID,38,VALID,0.360547,
2009-11-15, 01:33:05,VALID,915.959,VALID,0,VALID,97.2748,VALID,0.107441,VALID,20.3612,VALID,38,VALID,0.388281,
2009-11-15, 01:34:05,VALID,915.934,VALID,0,VALID,97.2595,VALID,0,VALID,20.3612,VALID,38,VALID,0.530469,
2009-11-15, 01:35:05,VALID,915.924,VALID,0,VALID,97.2824,VALID,0,VALID,20.3628,VALID,38,VALID,0.64375,
2009-11-15, 01:36:05,VALID,915.925,VALID,0,VALID,97.3053,VALID,0.107441,VALID,20.4002,VALID,38,VALID,0.857813,
2009-11-15, 01:37:05,VALID,915.891,VALID,0,VALID,97.3129,VALID,0,VALID,20.4213,VALID,37,VALID,0.751562,
2009-11-15, 01:38:05,VALID,915.888,VALID,0,VALID,97.2824,VALID,0,VALID,20.4018,VALID,38,VALID,0.566016,
2009-11-15, 01:39:05,VALID,915.843,VALID,0,VALID,97.2595,VALID,0,VALID,20.4018,VALID,37,VALID,0.620313,
2009-11-15, 01:40:05,VALID,915.829,VALID,0,VALID,97.2367,VALID,0.107441,VALID,20.3823,VALID,38,VALID,0.585547,
2009-11-15, 01:41:05,VALID,915.873,VALID,0,VALID,97.2443,VALID,0.107441,VALID,20.3612,VALID,37,VALID,0.551172,
2009-11-15, 01:42:05,VALID,915.843,VALID,0,VALID,97.2519,VALID,0.107441,VALID,20.3417,VALID,37,VALID,0.598437,
2009-11-15, 01:43:05,VALID,915.841,VALID,0,VALID,97.2824,VALID,0,VALID,20.3823,VALID,38,VALID,0.552734,
2009-11-15, 01:44:05,VALID,915.807,VALID,0,VALID,97.3053,VALID,0,VALID,20.3823,VALID,38,VALID,0.590625,
2009-11-15, 01:45:05,VALID,915.8,VALID,0,VALID,97.2824,VALID,0.107441,VALID,20.3417,VALID,38,VALID,0.382422,
2009-11-15, 01:46:05,VALID,915.786,VALID,0,VALID,97.29,VALID,0.107441,VALID,20.3612,VALID,38,VALID,0.210156,
2009-11-15, 01:47:05,VALID,915.769,VALID,0,VALID,97.2595,VALID,0,VALID,20.3612,VALID,38,VALID,0,
2009-11-15, 01:48:05,VALID,915.732,VALID,0,VALID,97.3205,VALID,0,VALID,20.3823,VALID,38,VALID,0,
2009-11-15, 01:49:05,VALID,915.712,VALID,0,VALID,97.3053,VALID,0,VALID,20.4018,VALID,38,VALID,0,
2009-11-15, 01:50:05,VALID,915.716,VALID,0,VALID,97.3358,VALID,0,VALID,20.3823,VALID,38,VALID,0,
2009-11-15, 01:51:05,VALID,915.692,VALID,0,VALID,97.2062,VALID,0.107441,VALID,20.3612,VALID,38,VALID,0,
2009-11-15, 01:52:05,VALID,915.662,VALID,0,VALID,97.1376,VALID,0.107441,VALID,20.3238,VALID,38,VALID,0,
2009-11-15, 01:53:05,VALID,915.673,VALID,0,VALID,97.1071,VALID,0.107441,VALID,20.2653,VALID,38,VALID,0,
2009-11-15, 01:54:05,VALID,915.671,VALID,0,VALID,97.1299,VALID,0.107441,VALID,20.2247,VALID,38,VALID,0,
2009-11-15, 01:55:05,VALID,915.655,VALID,0,VALID,97.1223,VALID,0.107441,VALID,20.2052,VALID,38,VALID,0.125,
2009-11-15, 01:56:05,VALID,915.592,VALID,0,VALID,97.0994,VALID,0.107441,VALID,20.2068,VALID,38,VALID,0.314453,
2009-11-15, 01:57:05,VALID,915.572,VALID,0,VALID,97.2748,VALID,0.107441,VALID,20.2263,VALID,38,VALID,0.485547,
2009-11-15, 01:58:05,VALID,915.576,VALID,0,VALID,97.2443,VALID,0,VALID,20.2247,VALID,37,VALID,0.353516,
2009-11-15, 01:59:05,VALID,915.582,VALID,0,VALID,97.1909,VALID,0.107441,VALID,20.2263,VALID,38,VALID,0.0839844,
2009-11-15, 02:00:05,VALID,915.545,VALID,0,VALID,97.229,VALID,0,VALID,20.2052,VALID,38,VALID,0.319531,
2009-11-15, 02:01:05,VALID,915.533,VALID,0,VALID,97.29,VALID,0,VALID,20.2458,VALID,38,VALID,0.0816406,
2009-11-15, 02:02:05,VALID,915.52,VALID,0,VALID,97.3129,VALID,0.107441,VALID,20.2848,VALID,38,VALID,0,
2009-11-15, 02:03:05,VALID,915.513,VALID,0,VALID,97.3053,VALID,0.107441,VALID,20.3043,VALID,38,VALID,0.156641,
2009-11-15, 02:04:05,VALID,915.492,VALID,0,VALID,97.1223,VALID,0.107441,VALID,20.2052,VALID,38,VALID,0.207031,
2009-11-15, 02:05:05,VALID,915.465,VALID,0,VALID,97.0308,VALID,0,VALID,20.1483,VALID,38,VALID,0.284766,
2009-11-15, 02:06:05,VALID,915.454,VALID,0,VALID,96.9851,VALID,0,VALID,20.0898,VALID,38,VALID,0.505078,
2009-11-15, 02:07:05,VALID,915.4,VALID,0,VALID,96.9927,VALID,0.107441,VALID,20.0703,VALID,38,VALID,0.530469,
2009-11-15, 02:08:05,VALID,915.413,VALID,0,VALID,96.9394,VALID,0,VALID,20.0118,VALID,38,VALID,0.526563,
2009-11-15, 02:09:05,VALID,915.413,VALID,0,VALID,97.1757,VALID,0,VALID,20.0703,VALID,38,VALID,0.473828,
2009-11-15, 02:10:05,VALID,915.386,VALID,0,VALID,97.229,VALID,0,VALID,20.1288,VALID,38,VALID,0.277344,
2009-11-15, 02:11:05,VALID,915.385,VALID,0,VALID,97.2824,VALID,0,VALID,20.1483,VALID,38,VALID,0.171875,
2009-11-15, 02:12:05,VALID,915.367,VALID,0,VALID,97.2595,VALID,0,VALID,20.1288,VALID,38,VALID,0,
2009-11-15, 02:13:05,VALID,915.376,VALID,0,VALID,97.2748,VALID,0,VALID,20.1288,VALID,38,VALID,0.0988281,
2009-11-15, 02:14:05,VALID,915.357,VALID,0,VALID,97.29,VALID,0.107441,VALID,20.1678,VALID,38,VALID,0,
2009-11-15, 02:15:05,VALID,915.332,VALID,0,VALID,97.3205,VALID,0,VALID,20.1873,VALID,38,VALID,0,
2009-11-15, 02:16:05,VALID,915.33,VALID,0,VALID,97.3281,VALID,0,VALID,20.1662,VALID,38,VALID,0,
2009-11-15, 02:17:05,VALID,915.34,VALID,0,VALID,97.3281,VALID,0,VALID,20.1873,VALID,38,VALID,0,
2009-11-15, 02:18:05,VALID,915.333,VALID,0,VALID,97.3434,VALID,0,VALID,20.2263,VALID,38,VALID,0,
2009-11-15, 02:19:05,VALID,915.312,VALID,0,VALID,97.3358,VALID,0,VALID,20.2263,VALID,38,VALID,0,
2009-11-15, 02:20:05,VALID,915.336,VALID,0,VALID,97.3739,VALID,0,VALID,20.2458,VALID,38,VALID,0,
2009-11-15, 02:21:05,VALID,915.307,VALID,0,VALID,97.3434,VALID,0,VALID,20.2458,VALID,38,VALID,0,
2009-11-15, 02:22:05,VALID,915.315,VALID,0,VALID,97.3205,VALID,0.107441,VALID,20.2442,VALID,38,VALID,0,
2009-11-15, 02:23:05,VALID,915.278,VALID,0,VALID,97.3434,VALID,0,VALID,20.2653,VALID,38,VALID,0,
2009-11-15, 02:24:05,VALID,915.272,VALID,0,VALID,97.3358,VALID,0,VALID,20.2668,VALID,38,VALID,0,
2009-11-15, 02:25:05,VALID,915.285,VALID,0,VALID,97.3129,VALID,0,VALID,20.2653,VALID,38,VALID,0.0894531,
2009-11-15, 02:26:05,VALID,915.252,VALID,0,VALID,97.3053,VALID,0,VALID,20.2653,VALID,38,VALID,0,
2009-11-15, 02:27:05,VALID,915.244,VALID,0,VALID,97.3205,VALID,0,VALID,20.2863,VALID,38,VALID,0,
2009-11-15, 02:28:05,VALID,915.225,VALID,0,VALID,97.2824,VALID,0,VALID,20.2863,VALID,38,VALID,0,
2009-11-15, 02:29:05,VALID,915.216,VALID,0,VALID,97.2977,VALID,0,VALID,20.2653,VALID,38,VALID,0,
2009-11-15, 02:30:05,VALID,915.201,VALID,0,VALID,97.2824,VALID,0,VALID,20.2668,VALID,38,VALID,0,
2009-11-15, 02:31:05,VALID,915.166,VALID,0,VALID,97.3129,VALID,0,VALID,20.3058,VALID,38,VALID,0,
2009-11-15, 02:32:05,VALID,915.203,VALID,0,VALID,97.3205,VALID,0,VALID,20.2848,VALID,38,VALID,0,
2009-11-15, 02:33:05,VALID,915.194,VALID,0,VALID,97.3434,VALID,0,VALID,20.3253,VALID,38,VALID,0,
2009-11-15, 02:34:05,VALID,915.17,VALID,0,VALID,97.3358,VALID,0,VALID,20.3433,VALID,38,VALID,0,
2009-11-15, 02:35:05,VALID,915.159,VALID,0,VALID,97.3281,VALID,0,VALID,20.3448,VALID,38,VALID,0,
2009-11-15, 02:36:05,VALID,915.13,VALID,0,VALID,97.3281,VALID,0,VALID,20.3448,VALID,38,VALID,0,
2009-11-15, 02:37:05,VALID,915.175,VALID,0,VALID,97.2977,VALID,0,VALID,20.3448,VALID,38,VALID,0.152344,
2009-11-15, 02:38:05,VALID,915.141,VALID,0,VALID,97.3205,VALID,0,VALID,20.3448,VALID,38,VALID,0.191797,
2009-11-15, 02:39:05,VALID,915.17,VALID,0,VALID,97.351,VALID,0,VALID,20.3838,VALID,38,VALID,0.0953125,
2009-11-15, 02:40:05,VALID,915.165,VALID,0,VALID,97.3434,VALID,0,VALID,20.4033,VALID,38,VALID,0.170312,
2009-11-15, 02:41:05,VALID,915.139,VALID,0,VALID,97.351,VALID,0,VALID,20.4018,VALID,38,VALID,0.0546875,
2009-11-15, 02:42:05,VALID,915.117,VALID,0,VALID,97.3815,VALID,0,VALID,20.4213,VALID,38,VALID,0,
2009-11-15, 02:43:05,VALID,915.095,VALID,0,VALID,97.3663,VALID,0,VALID,20.4408,VALID,38,VALID,0,
2009-11-15, 02:44:05,VALID,915.064,VALID,0,VALID,97.29,VALID,0,VALID,20.4423,VALID,38,VALID,0,
2009-11-15, 02:45:05,VALID,915.039,VALID,0,VALID,97.2977,VALID,0,VALID,20.4228,VALID,38,VALID,0,
2009-11-15, 02:46:05,VALID,915.032,VALID,0,VALID,97.2595,VALID,0,VALID,20.4033,VALID,38,VALID,0.375391,
2009-11-15, 02:47:05,VALID,915.026,VALID,0,VALID,97.2367,VALID,0,VALID,20.3628,VALID,38,VALID,0.391797,
2009-11-15, 02:48:05,VALID,915.017,VALID,0,VALID,97.229,VALID,0,VALID,20.3448,VALID,38,VALID,0.500781,
2009-11-15, 02:49:05,VALID,915.004,VALID,0,VALID,97.2519,VALID,0,VALID,20.3643,VALID,38,VALID,0.539063,
2009-11-15, 02:50:05,VALID,914.97,VALID,0,VALID,97.2977,VALID,0,VALID,20.3448,VALID,38,VALID,0.522656,
2009-11-15, 02:51:05,VALID,915.003,VALID,0,VALID,97.3434,VALID,0,VALID,20.3448,VALID,38,VALID,0.441016,
2009-11-15, 02:52:05,VALID,914.977,VALID,0,VALID,97.3053,VALID,0,VALID,20.3448,VALID,38,VALID,0.385938,
2009-11-15, 02:53:05,VALID,914.962,VALID,0,VALID,97.3434,VALID,0,VALID,20.3448,VALID,38,VALID,0.405078,
2009-11-15, 02:54:05,VALID,914.965,VALID,0,VALID,97.3586,VALID,0,VALID,20.3433,VALID,38,VALID,0.325391,
2009-11-15, 02:55:05,VALID,914.964,VALID,0,VALID,97.3663,VALID,0,VALID,20.3433,VALID,38,VALID,0.285937,
2009-11-15, 02:56:05,VALID,914.911,VALID,0,VALID,97.3815,VALID,0,VALID,20.3628,VALID,38,VALID,0.502734,
2009-11-15, 02:57:05,VALID,914.92,VALID,0,VALID,97.3891,VALID,0,VALID,20.3628,VALID,38,VALID,0.480859,
2009-11-15, 02:58:05,VALID,914.916,VALID,0,VALID,97.3739,VALID,0,VALID,20.3628,VALID,38,VALID,0.452344,
2009-11-15, 02:59:05,VALID,914.904,VALID,0,VALID,97.4044,VALID,0,VALID,20.3628,VALID,38,VALID,0.264062,
2009-11-15, 03:00:05,VALID,914.892,VALID,0,VALID,97.4425,VALID,0,VALID,20.3823,VALID,37,VALID,0.255469,
2009-11-15, 03:01:05,VALID,914.857,VALID,0,VALID,97.4273,VALID,0,VALID,20.4018,VALID,38,VALID,0.071875,
2009-11-15, 03:02:05,VALID,914.866,VALID,0,VALID,97.412,VALID,0,VALID,20.4213,VALID,38,VALID,0.185547,
2009-11-15, 03:03:05,VALID,914.851,VALID,0,VALID,97.4044,VALID,0,VALID,20.4018,VALID,38,VALID,0.157422,
2009-11-15, 03:04:05,VALID,914.85,VALID,0,VALID,97.3891,VALID,0,VALID,20.4018,VALID,38,VALID,0.305078,
2009-11-15, 03:05:05,VALID,914.842,VALID,0,VALID,97.3968,VALID,0,VALID,20.3823,VALID,38,VALID,0.318359,
2009-11-15, 03:06:05,VALID,914.838,VALID,0,VALID,97.412,VALID,0,VALID,20.3823,VALID,38,VALID,0.283203,
2009-11-15, 03:07:05,VALID,914.836,VALID,0,VALID,97.4196,VALID,0,VALID,20.3823,VALID,38,VALID,0.0140625,
2009-11-15, 03:08:05,VALID,914.814,VALID,0,VALID,97.4196,VALID,0,VALID,20.3838,VALID,38,VALID,0.372266,
2009-11-15, 03:09:05,VALID,914.792,VALID,0,VALID,97.412,VALID,0,VALID,20.3823,VALID,38,VALID,0.370313,
2009-11-15, 03:10:05,VALID,914.802,VALID,0,VALID,97.412,VALID,0,VALID,20.3823,VALID,38,VALID,0.405078,
2009-11-15, 03:11:05,VALID,914.778,VALID,0,VALID,97.412,VALID,0,VALID,20.3823,VALID,38,VALID,0.519531,
2009-11-15, 03:12:05,VALID,914.777,VALID,0,VALID,97.4425,VALID,0,VALID,20.3823,VALID,38,VALID,0.210156,
2009-11-15, 03:13:05,VALID,914.756,VALID,0,VALID,97.473,VALID,0,VALID,20.4018,VALID,38,VALID,0.176172,
2009-11-15, 03:14:05,VALID,914.74,VALID,0,VALID,97.4577,VALID,0,VALID,20.4002,VALID,38,VALID,0.168359,
2009-11-15, 03:15:05,VALID,914.737,VALID,0,VALID,97.473,VALID,0,VALID,20.4213,VALID,38,VALID,0,
2009-11-15, 03:16:05,VALID,914.721,VALID,0,VALID,97.4654,VALID,0,VALID,20.4213,VALID,38,VALID,0.389453,
2009-11-15, 03:17:05,VALID,914.706,VALID,0,VALID,97.4273,VALID,0,VALID,20.4018,VALID,38,VALID,0.246484,
2009-11-15, 03:18:05,VALID,914.729,VALID,0,VALID,97.4577,VALID,0,VALID,20.4213,VALID,38,VALID,0.288672,
2009-11-15, 03:19:05,VALID,914.75,VALID,0,VALID,97.4501,VALID,0,VALID,20.4213,VALID,38,VALID,0.348437,
2009-11-15, 03:20:05,VALID,914.709,VALID,0,VALID,97.4349,VALID,0,VALID,20.4018,VALID,38,VALID,0.357812,
2009-11-15, 03:21:05,VALID,914.697,VALID,0,VALID,97.4577,VALID,0,VALID,20.4018,VALID,38,VALID,0.253516,
2009-11-15, 03:22:05,VALID,914.725,VALID,0,VALID,97.473,VALID,0.107441,VALID,20.4002,VALID,38,VALID,0,
2009-11-15, 03:23:05,VALID,914.736,VALID,0,VALID,97.473,VALID,0,VALID,20.4213,VALID,38,VALID,0,
2009-11-15, 03:24:05,VALID,914.717,VALID,0,VALID,97.473,VALID,0,VALID,20.4018,VALID,38,VALID,0,
2009-11-15, 03:25:05,VALID,914.725,VALID,0,VALID,97.4959,VALID,0,VALID,20.4213,VALID,38,VALID,0,
2009-11-15, 03:26:05,VALID,914.702,VALID,0,VALID,97.4882,VALID,0,VALID,20.4213,VALID,38,VALID,0.184375,
2009-11-15, 03:27:05,VALID,914.712,VALID,0,VALID,97.5035,VALID,0,VALID,20.4408,VALID,38,VALID,0.189844,
2009-11-15, 03:28:05,VALID,914.687,VALID,0,VALID,97.4882,VALID,0,VALID,20.4392,VALID,38,VALID,0.357031,
2009-11-15, 03:29:05,VALID,914.668,VALID,0,VALID,97.5111,VALID,0,VALID,20.4392,VALID,38,VALID,0.283984,
2009-11-15, 03:30:05,VALID,914.655,VALID,0,VALID,97.5111,VALID,0.107441,VALID,20.4392,VALID,38,VALID,0.096875,
2009-11-15, 03:31:05,VALID,914.64,VALID,0,VALID,97.5035,VALID,0,VALID,20.4603,VALID,38,VALID,0,
2009-11-15, 03:32:05,VALID,914.638,VALID,0,VALID,97.5035,VALID,0,VALID,20.4798,VALID,38,VALID,0,
2009-11-15, 03:33:05,VALID,914.607,VALID,0,VALID,97.5264,VALID,0.107441,VALID,20.4993,VALID,38,VALID,0.0121094,
2009-11-15, 03:34:05,VALID,914.605,VALID,0,VALID,97.4882,VALID,0,VALID,20.4782,VALID,38,VALID,0,
2009-11-15, 03:35:05,VALID,914.602,VALID,0,VALID,97.4882,VALID,0,VALID,20.4603,VALID,38,VALID,0.00273437,
2009-11-15, 03:36:05,VALID,914.588,VALID,0,VALID,97.4882,VALID,0,VALID,20.4603,VALID,38,VALID,0.323438,
2009-11-15, 03:37:05,VALID,914.59,VALID,0,VALID,97.4959,VALID,0,VALID,20.4603,VALID,38,VALID,0.344141,
2009-11-15, 03:38:05,VALID,914.585,VALID,0,VALID,97.5111,VALID,0,VALID,20.4603,VALID,38,VALID,0.187891,
2009-11-15, 03:39:05,VALID,914.557,VALID,0,VALID,97.5187,VALID,0,VALID,20.4603,VALID,37,VALID,0.283594,
2009-11-15, 03:40:05,VALID,914.583,VALID,0,VALID,97.4959,VALID,0,VALID,20.4408,VALID,38,VALID,0.232812,
2009-11-15, 03:41:05,VALID,914.583,VALID,0,VALID,97.4882,VALID,0,VALID,20.4408,VALID,38,VALID,0.286719,
2009-11-15, 03:42:05,VALID,914.549,VALID,0,VALID,97.5111,VALID,0,VALID,20.4618,VALID,38,VALID,0.0648438,
2009-11-15, 03:43:05,VALID,914.524,VALID,0,VALID,97.5264,VALID,0,VALID,20.4408,VALID,38,VALID,0.221094,
2009-11-15, 03:44:05,VALID,914.542,VALID,0,VALID,97.5187,VALID,0,VALID,20.4603,VALID,38,VALID,0.296875,
2009-11-15, 03:45:05,VALID,914.524,VALID,0,VALID,97.5187,VALID,0,VALID,20.4603,VALID,38,VALID,0.329297,